• Join FlightAware (Why Join?)
  • Login
  • US Flag 
11:10PM EST


 

Airport Tracker/Info


-or-


 

Live Flight TrackerFlight Track Log ✈ ASQ4209 ✈ 19-May-2013 ✈ KMFE - KIAH

Flight Track Log - Related Links

Times and Time Zones

All times are in EDT time to prevent confusion due to time zone crossing. See the ASQ4209 flight status page for this flight to view local times or setup timezone preferences in your user account.

Time Position Orientation Groundspeed Altitude Reporting Facility
EDT Latitude Longitude Course Direction KTS MPH feet Rate Location/Type
07:54PM 26.1611 -98.2239 22° Northeast 134 154 800  Level Houston Center
07:55PM 26.1883 -98.1831 53° Northeast 220 253 2,600 1,617 Climbing Houston Center
07:56PM 26.2547 -98.1553 21° North 263 303 3,900 2,087 Climbing Houston Center
07:57PM 26.4379 -98.1061 24° Northeast  Level FlightAware Approximate
07:57PM 26.3275 -98.1256 20° North 285 328 6,600  Level Houston Center
07:58PM 26.5051 -98.0725 24° Northeast  Level FlightAware Approximate
07:58PM 26.4039 -98.0928 21° North 272 313 8,300  Level Houston Center
07:59PM 26.5726 -98.0399 22° Northeast  Level FlightAware Approximate
07:59PM 26.4797 -98.0603 21° North 286 329 10,100  Level Houston Center
08:00PM 26.5597 -98.0261 21° North 302 348 11,000 919 Climbing Houston Center
08:01PM 26.6558 -97.9856 21° North 335 386 12,000 968 Climbing Houston Center
08:02PM 26.7500 -97.9447 21° North 356 410 13,000 1,113 Climbing Houston Center
08:03PM 26.8528 -97.9019 20° North 364 419 14,300 1,258 Climbing Houston Center
08:04PM 26.9481 -97.8606 21° North 366 421 15,600 1,210 Climbing Houston Center
08:05PM 27.0433 -97.8189 21° North 366 421 16,800 1,122 Climbing Houston Center
08:06PM 27.1314 -97.7800 21° North 373 429 17,900 1,171 Climbing Houston Center
08:07PM 27.2272 -97.7383 21° North 371 427 19,200 1,258 Climbing Houston Center
08:08PM 27.3478 -97.6875 21° North 381 438 20,500 1,113 Climbing Houston Center
08:09PM 27.4486 -97.6419 22° Northeast 388 447 21,500 1,016 Climbing Houston Center
08:10PM 27.5506 -97.5972 21° North 393 452 22,600 1,016 Climbing Houston Center
08:11PM 27.6533 -97.5542 20° North 395 455 23,600 968 Climbing Houston Center
08:12PM 27.7569 -97.5089 21° North 399 459 24,600 1,113 Climbing Houston Center
08:13PM 27.8814 -97.4542 21° North 402 463 25,900 1,065 Climbing Houston Center
08:14PM 27.9750 -97.4097 23° Northeast 406 467 26,800 532 Climbing Houston Center
08:15PM 28.0803 -97.3575 24° Northeast 411 473 27,000 97 Climbing Houston Center
08:16PM 28.2153 -97.2889 24° Northeast 438 504 27,000  Level Houston Center
08:17PM 28.3311 -97.2311 24° Northeast 453 521 27,000  Level Houston Center
08:18PM 28.4483 -97.1717 24° Northeast 460 529 27,000  Level Houston Center
08:19PM 28.5672 -97.1114 24° Northeast 466 536 27,000  Level Houston Center
08:21PM 28.6867 -97.0517 24° Northeast 469 540 27,000 -242 Level Houston Center
08:22PM 28.8058 -96.9908 24° Northeast 470 541 26,500 -919 Descending Houston Center
08:23PM 28.9394 -96.9014 30° Northeast 472 543 25,100 -1,452 Descending Houston Center
08:24PM 29.0297 -96.7928 46° Northeast 475 547 23,500 -2,032 Descending Houston Center
08:25PM 29.1172 -96.6872 46° Northeast 466 536 20,900 -2,758 Descending Houston Center
08:26PM 29.1981 -96.5892 47° Northeast 433 498 17,800 -2,758 Descending Houston Center
08:27PM 29.2753 -96.4967 46° Northeast 411 473 15,200 -2,649 Descending Houston Center
08:27PM 29.3081 -96.4589 45° Northeast 401 461 14,400 -2,462 Descending Houston Center
08:27PM 29.3383 -96.4197 48° Northeast 404 465 13,600 -2,043 Descending Houston Center
08:28PM 29.3669 -96.3856 46° Northeast 403 464 12,800 -2,032 Descending Houston Center
08:28PM 29.4147 -96.3300 45° Northeast 401 461 11,500 -1,742 Descending Houston Center
08:29PM 29.4403 -96.2953 50° Northeast 390 449 11,000 -1,377 Descending Houston Center
08:29PM 29.4925 -96.2325 46° Northeast 384 442 10,100 -1,082 Descending Houston Center
08:30PM 29.5147 -96.2053 47° Northeast 389 448 9,900 -98 Descending Houston Center
08:30PM 29.5583 -96.1436 51° Northeast 365 420 10,000 97 Climbing Houston Center
08:31PM 29.5722 -96.1158 60° Northeast 352 405 10,000 -98 Level Houston Center
08:31PM 29.6050 -96.0519 59° Northeast 325 374 9,900 -571 Descending Houston Center
08:32PM 29.6167 -96.0256 63° Northeast 328 377 9,400 -1,377 Descending Houston Center
08:32PM 29.6442 -95.9706 60° Northeast 285 328 8,500 -1,574 Descending Houston Center
08:33PM 29.6619 -95.9358 59° Northeast 295 339 7,800 -1,452 Descending Houston Center
08:33PM 29.7039 -95.9108 27° Northeast 293 337 7,000 -774 Descending Houston Center
08:34PM 29.7386 -95.9008 14° North 301 346 7,000  Level Houston Center
08:35PM 29.7836 -95.8633 36° Northeast 299 344 7,000  Level Houston Center
08:35PM 29.8044 -95.8433 40° Northeast 299 344 7,000 -197 Level Houston Center
08:36PM 29.8500 -95.8050 36° Northeast 296 341 6,800 -484 Descending Houston Center
08:36PM 29.8711 -95.7875 36° Northeast 294 338 6,500 -984 Descending Houston Center
08:37PM 29.9108 -95.7569 34° Northeast 262 302 5,800 -968 Descending Houston Center
08:37PM 29.9308 -95.7397 37° Northeast 270 311 5,500 -774 Descending Houston Center
08:38PM 29.9650 -95.7072 39° Northeast 243 280 5,000 -492 Descending Houston Center
08:38PM 29.9778 -95.6875 53° Northeast 239 275 5,000 -295 Level Houston Center
08:39PM 29.9922 -95.6342 73° East 234 269 4,700 -774 Descending Houston Center
08:39PM 29.9928 -95.6006 89° East 233 268 4,200 -1,082 Descending Houston Center
08:40PM 29.9944 -95.5664 87° East 204 235 3,600 -1,161 Descending Houston Center
08:40PM 29.9942 -95.5344 91° East 213 245 3,000 -978 Descending Houston Center
08:41PM 29.9939 -95.4736 90° East 201 231 2,100 -968 Descending Houston Center
08:42PM 29.9922 -95.4483 94° East 157 181 1,500 -787 Descending Houston Center
08:42PM 29.9944 -95.4261 83° East 175 201 1,300 -590 Descending Houston Center
08:43PM 29.9922 -95.4025 96° East 122 140 900 -677 Descending Houston Center
08:43PM 29.9942 -95.3850 83° East 149 171 600 -581 Descending Houston Center